W4MLN-2 Weather Reports


Display with metric or nautical units.
time (UTC)temp
F
wind
direction
speed
MPH
gust
MPH
rain 1hr
in
rain 24hr
in
rain mn
in
humidity
%
barometer
mb
20260906075503 64 1 3.0 5.0 0.00 0.02 0.00 1 1011.4
20260906075003 64 23 3.0 5.0 0.00 0.02 0.00 1 1011.4
20260906074503 64 27 3.0 7.0 0.00 0.02 0.00 1 1011.7
20260906074003 64 31 3.0 7.0 0.00 0.02 0.00 1 1011.7
20260906073503 65 3 3.0 5.0 0.00 0.02 0.00 1 1011.7
20260906073003 65 315 3.0 5.0 0.00 0.02 0.00 1 1011.8
20260906072503 65 334 3.0 5.0 0.00 0.02 0.00 1 1011.8
20260906072003 65 4 3.0 5.0 0.00 0.02 0.00 1 1011.8
20260906071503 65 15 3.0 5.0 0.00 0.02 0.00 1 1011.7
20260906071003 65 15 3.0 4.0 0.00 0.02 0.00 1 1011.7
20260906070503 65 15 2.0 3.0 0.00 0.02 0.00 1 1011.7
20260906070003 66 15 1.0 3.0 0.00 0.02 0.00 1 1011.8
20260906065503 66 15 1.0 3.0 0.00 0.02 0.00 1 1011.8
20260906065003 66 15 2.0 4.0 0.00 0.02 0.00 1 1011.8
20260906064503 66 15 1.0 4.0 0.00 0.02 0.00 1 1012.3
20260906064003 66 15 2.0 3.0 0.00 0.02 0.00 1 1012.3
20260906063503 66 15 2.0 4.0 0.00 0.02 0.00 1 1012.3
20260906063003 66 15 3.0 4.0 0.00 0.02 0.00 1 1012.2
20260906062503 66 15 3.0 5.0 0.00 0.02 0.00 1 1012.2
20260906062003 66 15 3.0 5.0 0.00 0.02 0.00 1 1012.2
20260906061503 65 15 3.0 5.0 0.00 0.02 0.00 1 1012.3
20260906061003 65 15 2.0 5.0 0.00 0.02 0.00 1 1012.3
20260906060503 66 15 2.0 4.0 0.00 0.02 0.00 1 1012.3
20260906060003 66 11 2.0 5.0 0.00 0.02 0.00 1 1012.7
20260906055503 66 11 3.0 5.0 0.00 0.02 0.00 1 1012.7
20260906055003 66 14 3.0 5.0 0.00 0.02 0.00 1 1012.7
20260906054503 66 15 3.0 7.0 0.00 0.02 0.00 1 1012.8
20260906054003 66 15 2.0 7.0 0.00 0.02 0.00 1 1012.8
20260906053503 66 15 2.0 5.0 0.00 0.02 0.00 1 1012.8
20260906053003 66 15 1.0 5.0 0.00 0.02 0.00 1 1012.7
20260906052503 66 15 1.0 3.0 0.00 0.02 0.00 1 1012.7
20260906052003 66 15 2.0 3.0 0.00 0.02 0.00 1 1012.7
20260906051503 66 15 1.0 3.0 0.00 0.02 0.00 1 1012.7
20260906051003 66 15 1.0 3.0 0.00 0.02 0.00 1 1012.7
20260906050503 66 15 2.0 3.0 0.00 0.02 0.00 1 1012.7
20260906050003 66 15 2.0 3.0 0.00 0.02 0.00 1 1012.8
20260906045503 66 15 2.0 4.0 0.00 0.02 0.00 1 1012.8
20260906045003 67 15 2.0 4.0 0.00 0.02 0.00 1 1012.8
20260906044503 67 15 2.0 4.0 0.00 0.02 0.00 1 1012.8
20260906044003 67 15 1.0 3.0 0.00 0.02 0.00 1 1012.8
20260906043503 67 15 2.0 3.0 0.00 0.02 0.00 1 1012.8
20260906043003 67 15 2.0 3.0 0.00 0.02 0.00 1 1012.9
20260906042503 67 15 2.0 3.0 0.00 0.02 0.00 1 1012.9
20260906042003 68 15 1.0 2.0 0.00 0.02 0.00 1 1012.9
20260906041503 68 15 2.0 3.0 0.00 0.02 0.00 1 1013.0
20260906041003 68 15 2.0 3.0 0.00 0.02 0.00 1 1013.0
20260906040503 68 15 2.0 3.0 0.00 0.02 0.00 1 1013.0
20260906040003 67 15 2.0 3.0 0.00 0.02 0.00 1 1012.9
20260906035503 67 15 2.0 4.0 0.00 0.02 0.02 1 1012.9
20260906035003 67 15 3.0 4.0 0.00 0.02 0.02 1 1012.9
20260906034503 67 15 2.0 4.0 0.00 0.02 0.02 1 1012.8
20260906034003 68 15 1.0 4.0 0.00 0.02 0.02 1 1012.8
20260906033503 68 15 1.0 3.0 0.00 0.02 0.02 1 1012.8
20260906033003 68 15 2.0 5.0 0.00 0.02 0.02 1 1012.7
20260906032503 68 15 3.0 5.0 0.00 0.02 0.02 1 1012.7
20260906032003 68 4 3.0 5.0 0.00 0.02 0.02 1 1012.7
20260906031503 68 339 3.0 5.0 0.00 0.02 0.02 1 1012.8
20260906031003 68 323 3.0 5.0 0.00 0.02 0.02 1 1012.8
20260906030503 68 342 3.0 5.0 0.00 0.02 0.02 1 1012.8
20260906030003 68 52 2.0 5.0 0.00 0.02 0.02 1 1013.2
20260906025503 68 47 3.0 5.0 0.00 0.02 0.02 1 1013.2
20260906025003 68 349 3.0 5.0 0.00 0.02 0.02 1 1013.2
20260906024503 69 328 4.0 8.0 0.00 0.02 0.02 1 1012.8
20260906024003 69 333 4.0 8.0 0.00 0.02 0.02 1 1012.8
20260906023503 69 352 4.0 6.0 0.00 0.02 0.02 1 1012.8
20260906023003 69 19 3.0 6.0 0.00 0.02 0.02 1 1012.9
20260906022503 69 30 2.0 4.0 0.00 0.02 0.02 1 1012.9
20260906022003 70 29 2.0 5.0 0.00 0.02 0.02 1 1012.9
20260906021503 70 29 3.0 6.0 0.00 0.02 0.02 1 1012.8
20260906021003 70 30 3.0 6.0 0.00 0.02 0.02 1 1012.8
20260906020503 70 30 3.0 5.0 0.00 0.02 0.02 1 1012.8
20260906020003 70 30 3.0 5.0 0.00 0.02 0.02 1 1012.7
20260906015503 70 29 3.0 5.0 0.00 0.02 0.02 1 1012.7
20260906015004 70 30 3.0 6.0 0.00 0.02 0.02 1 1012.7
20260906014503 70 9 3.0 6.0 0.00 0.02 0.02 1 1012.7
20260906014003 70 336 3.0 5.0 0.00 0.02 0.02 1 1012.7
20260906013503 70 331 4.0 6.0 0.00 0.02 0.02 1 1012.7
20260906013003 70 334 4.0 8.0 0.00 0.02 0.02 3 1012.5
20260906012503 71 337 4.0 8.0 0.00 0.02 0.02 6 1012.5
20260906012003 71 347 4.0 7.0 0.00 0.02 0.02 9 1012.5
20260906011503 71 14 4.0 7.0 0.00 0.02 0.02 12 1012.6
20260906011003 71 40 3.0 5.0 0.00 0.02 0.02 15 1012.6
20260906010503 71 27 3.0 5.0 0.00 0.02 0.02 17 1012.6
20260906010003 71 13 2.0 4.0 0.00 0.02 0.02 18 1012.3
20260906005503 71 33 1.0 4.0 0.00 0.02 0.02 19 1012.3
20260906005003 71 83 1.0 3.0 0.00 0.02 0.02 21 1012.3
20260906004503 71 200 2.0 4.0 0.00 0.02 0.02 20 1012.2
20260906004003 71 199 2.0 5.0 0.00 0.02 0.02 21 1012.2
20260906003503 71 156 2.0 5.0 0.00 0.02 0.02 23 1012.2
20260906003003 71 30 2.0 6.0 0.00 0.02 0.02 26 1011.9
20260906002503 71 16 2.0 6.0 0.00 0.02 0.02 27 1011.9
20260906002003 72 26 2.0 4.0 0.00 0.02 0.02 29 1011.9
20260906001503 72 9 3.0 6.0 0.00 0.02 0.02 31 1011.8
20260906001003 72 346 3.0 8.0 0.00 0.02 0.02 33 1011.8
20260906000503 72 349 4.0 8.0 0.00 0.02 0.02 34 1011.8
20260906000003 72 352 4.0 9.0 0.00 0.02 0.02 34 1011.7
20260905235503 73 355 4.0 9.0 0.00 0.02 0.02 37 1011.7
20260905235003 73 6 4.0 7.0 0.00 0.02 0.02 39 1011.7
20260905234503 74 350 4.0 6.0 0.00 0.02 0.02 40 1011.8
20260905234003 74 346 4.0 7.0 0.00 0.02 0.02 41 1011.8
20260905233503 74 354 4.0 10.0 0.00 0.02 0.02 41 1011.8
20260905233003 75 339 5.0 11.0 0.00 0.02 0.02 42 1011.7
20260905232503 75 325 5.0 11.0 0.00 0.02 0.02 42 1011.7
20260905232003 75 328 4.0 9.0 0.00 0.02 0.02 42 1011.7
20260905231503 75 334 5.0 11.0 0.00 0.02 0.02 43 1011.7
20260905231003 75 343 5.0 11.0 0.00 0.02 0.02 44 1011.7
20260905230503 75 346 5.0 11.0 0.00 0.02 0.02 44 1011.7
20260905230003 75 346 5.0 11.0 0.00 0.02 0.02 45 1011.7
20260905225503 75 353 5.0 10.0 0.00 0.02 0.02 45 1011.7
20260905225003 76 353 5.0 12.0 0.00 0.02 0.02 45 1011.7
20260905224503 76 354 5.0 12.0 0.00 0.02 0.02 46 1011.9
20260905224003 76 357 5.0 10.0 0.00 0.02 0.02 46 1011.9
20260905223503 77 352 5.0 12.0 0.00 0.02 0.02 45 1011.9
20260905223003 77 348 5.0 12.0 0.00 0.02 0.02 45 1011.7
20260905222503 77 345 6.0 12.0 0.00 0.02 0.02 45 1011.7
20260905222003 77 343 7.0 15.0 0.00 0.02 0.02 45 1011.7
20260905221503 78 338 8.0 15.0 0.00 0.02 0.02 45 1011.7
20260905221003 78 337 8.0 13.0 0.00 0.02 0.02 46 1011.7
20260905220503 78 335 8.0 17.0 0.00 0.02 0.02 46 1011.7
20260905220003 78 333 8.0 17.0 0.00 0.02 0.02 46 1011.8
20260905215503 78 328 8.0 15.0 0.00 0.02 0.02 45 1011.8
20260905215003 78 323 9.0 15.0 0.00 0.02 0.02 45 1011.8
20260905214503 78 324 7.0 14.0 0.00 0.02 0.02 45 1011.7
20260905214003 79 317 7.0 17.0 0.00 0.02 0.02 45 1011.7
20260905213503 79 308 7.0 17.0 0.00 0.02 0.02 44 1011.7
20260905213003 79 301 7.0 12.0 0.00 0.02 0.02 44 1011.8
20260905212503 79 308 7.0 12.0 0.00 0.02 0.02 44 1011.8
20260905212003 79 317 7.0 12.0 0.00 0.02 0.02 44 1011.8
20260905211503 79 317 6.0 14.0 0.00 0.02 0.02 44 1011.8
20260905211003 79 315 7.0 14.0 0.00 0.02 0.02 44 1011.8
20260905210503 79 307 7.0 13.0 0.00 0.02 0.02 43 1011.8
20260905210003 79 309 6.0 13.0 0.00 0.02 0.02 44 1011.8
20260905205503 79 331 5.0 11.0 0.00 0.02 0.02 43 1011.8
20260905205003 78 349 5.0 10.0 0.00 0.02 0.02 43 1011.8
20260905204503 78 326 6.0 11.0 0.00 0.02 0.02 43 1012.0
20260905204003 78 325 5.0 11.0 0.00 0.02 0.02 42 1012.0
20260905203503 78 16 4.0 8.0 0.00 0.02 0.02 41 1012.0
20260905203003 78 36 4.0 10.0 0.00 0.02 0.02 41 1011.9
20260905202503 77 45 4.0 10.0 0.00 0.02 0.02 41 1011.9
20260905202003 77 39 5.0 11.0 0.00 0.02 0.02 41 1011.9
20260905201503 77 35 5.0 13.0 0.00 0.02 0.02 40 1011.9
20260905201003 77 15 4.0 13.0 0.00 0.02 0.02 40 1011.9
20260905200503 76 5 5.0 10.0 0.00 0.02 0.02 41 1011.9
20260905200003 76 355 5.0 15.0 0.00 0.02 0.02 41 1011.7
20260905195503 75 1 8.0 16.0 0.00 0.02 0.02 41 1011.7
20260905195004 74 10 9.0 16.0 0.00 0.02 0.02 41 1011.7
20260905194503 75 13 7.0 13.0 0.00 0.02 0.02 40 1011.6
20260905194003 75 23 6.0 13.0 0.00 0.02 0.02 40 1011.6
20260905193503 75 4 7.0 22.0 0.00 0.02 0.02 40 1011.6
20260905193003 75 336 8.0 22.0 0.00 0.02 0.02 41 1011.6
20260905192503 75 329 10.0 27.0 0.00 0.02 0.02 40 1011.6
20260905192003 75 325 10.0 27.0 0.00 0.02 0.02 39 1011.6
20260905191503 74 338 7.0 19.0 0.00 0.02 0.02 38 1011.7
20260905191003 73 4 7.0 16.0 0.00 0.02 0.02 35 1011.7
20260905190503 72 12 8.0 16.0 0.00 0.02 0.02 32 1011.7
20260905190003 72 9 7.0 14.0 0.00 0.02 0.02 30 1011.7
20260905185503 72 358 5.0 14.0 0.00 0.02 0.02 26 1011.7
20260905185003 71 354 4.0 11.0 0.00 0.02 0.02 24 1011.7
20260905184503 71 8 6.0 14.0 0.00 0.02 0.02 18 1012.2
20260905184003 71 14 6.0 14.0 0.00 0.02 0.02 12 1012.2
20260905183503 70 20 5.0 13.0 0.01 0.02 0.02 6 1012.2
20260905183003 70 35 3.0 8.0 0.01 0.02 0.02 1 1012.8
20260905182503 70 25 3.0 7.0 0.01 0.02 0.02 1 1012.8
20260905182003 69 12 4.0 8.0 0.01 0.02 0.02 1 1012.8
20260905181503 69 14 3.0 8.0 0.02 0.02 0.02 1 1013.4
20260905181003 69 15 3.0 7.0 0.02 0.02 0.02 1 1013.4
20260905180503 69 341 4.0 11.0 0.02 0.02 0.02 1 1013.4
20260905180003 69 331 4.0 11.0 0.02 0.02 0.02 1 1013.7
20260905175503 68 333 4.0 9.0 0.02 0.02 0.02 1 1013.7
20260905175003 68 328 5.0 9.0 0.02 0.02 0.02 1 1013.7
20260905174503 68 324 4.0 9.0 0.02 0.02 0.02 1 1014.2
20260905174003 69 327 2.0 4.0 0.02 0.02 0.02 1 1014.2
20260905173503 69 323 3.0 6.0 0.01 0.01 0.01 6 1014.2
20260905173003 69 334 3.0 8.0 0.01 0.01 0.01 10 1015.0
20260905172503 69 355 4.0 9.0 0.01 0.01 0.01 15 1015.0
20260905172003 70 359 6.0 9.0 0.01 0.01 0.01 23 1015.0
20260905171503 70 358 6.0 10.0 0.00 0.00 0.00 28 1015.1
20260905171003 71 2 8.0 15.0 0.00 0.00 0.00 32 1015.1
20260905170503 71 4 9.0 15.0 0.00 0.00 0.00 35 1015.1
20260905170003 71 3 9.0 15.0 0.00 0.00 0.00 36 1015.0
20260905165503 72 2 9.0 17.0 0.00 0.00 0.00 38 1015.0
20260905165003 72 359 11.0 22.0 0.00 0.00 0.00 39 1015.0
20260905164503 72 357 15.0 31.0 0.00 0.00 0.00 39 1015.5
20260905164003 73 357 17.0 31.0 0.00 0.00 0.00 39 1015.5
20260905163503 74 5 18.0 32.0 0.00 0.00 0.00 39 1015.5
20260905163003 76 8 16.0 32.0 0.00 0.00 0.00 36 1014.6
20260905162503 78 5 12.0 31.0 0.00 0.00 0.00 29 1014.6
20260905162003 78 2 10.0 18.0 0.00 0.00 0.00 30 1014.6
20260905161503 79 353 10.0 18.0 0.00 0.00 0.00 30 1014.4
20260905161003 79 347 10.0 17.0 0.00 0.00 0.00 31 1014.4
20260905160503 80 350 8.0 16.0 0.00 0.00 0.00 30 1014.4
20260905160003 80 345 10.0 19.0 0.00 0.00 0.00 30 1014.5
20260905155503 80 347 9.0 20.0 0.00 0.00 0.00 31 1014.5
20260905155003 81 355 7.0 20.0 0.00 0.00 0.00 30 1014.5
20260905154503 81 353 7.0 16.0 0.00 0.00 0.00 26 1014.6
20260905154003 81 349 6.0 15.0 0.00 0.00 0.00 27 1014.6
20260905153503 80 353 7.0 15.0 0.00 0.00 0.00 25 1014.6
20260905153003 80 355 8.0 15.0 0.00 0.00 0.00 22 1014.5
20260905152503 79 351 6.0 14.0 0.00 0.00 0.00 23 1014.5
20260905152003 79 346 5.0 10.0 0.00 0.00 0.00 21 1014.5
20260905151503 79 346 5.0 10.0 0.00 0.00 0.00 22 1014.4
20260905151003 79 345 4.0 10.0 0.00 0.00 0.00 22 1014.4
20260905150503 79 348 5.0 13.0 0.00 0.00 0.00 22 1014.4
20260905150003 79 349 8.0 20.0 0.00 0.00 0.00 21 1014.1
20260905145503 79 347 9.0 20.0 0.00 0.00 0.00 20 1014.1
20260905145003 79 343 7.0 14.0 0.00 0.00 0.00 21 1014.1
20260905144503 79 344 7.0 14.0 0.00 0.00 0.00 18 1014.4
20260905144003 79 345 7.0 14.0 0.00 0.00 0.00 19 1014.4
20260905143503 78 344 7.0 13.0 0.00 0.00 0.00 18 1014.4
20260905143003 78 348 7.0 12.0 0.00 0.00 0.00 16 1014.4
20260905142503 78 347 8.0 14.0 0.00 0.00 0.00 15 1014.4
20260905142003 78 345 9.0 14.0 0.00 0.00 0.00 15 1014.4
20260905141503 78 346 9.0 17.0 0.00 0.00 0.00 13 1014.4
20260905141003 78 352 8.0 17.0 0.00 0.00 0.00 14 1014.4
20260905140503 78 1 7.0 14.0 0.00 0.00 0.00 9 1014.4
20260905140004 78 2 8.0 17.0 0.00 0.00 0.00 10 1014.2
20260905135503 78 352 8.0 17.0 0.00 0.00 0.00 9 1014.2
20260905135003 77 353 9.0 15.0 0.00 0.00 0.00 9 1014.2
20260905134503 77 360 7.0 15.0 0.00 0.00 0.00 6 1014.3
20260905134003 77 360 6.0 12.0 0.00 0.00 0.00 3 1014.3
20260905133503 77 6 4.0 11.0 0.00 0.00 0.00 1 1014.3
20260905133003 76 15 4.0 12.0 0.00 0.00 0.00 1 1014.4
20260905132503 76 22 3.0 12.0 0.00 0.00 0.00 1 1014.4
20260905132003 75 23 4.0 11.0 0.00 0.00 0.00 1 1014.4
20260905131503 75 19 4.0 11.0 0.00 0.00 0.00 1 1014.5
20260905131003 74 20 3.0 9.0 0.00 0.00 0.00 1 1014.5
20260905130503 74 18 4.0 8.0 0.00 0.00 0.00 1 1014.5
20260905130003 73 13 4.0 9.0 0.00 0.00 0.00 1 1014.6
20260905125503 73 8 4.0 9.0 0.00 0.00 0.00 1 1014.6
20260905125003 73 11 4.0 8.0 0.00 0.00 0.00 1 1014.6
20260905124503 73 17 4.0 8.0 0.00 0.00 0.00 1 1014.6
20260905124003 73 16 3.0 5.0 0.00 0.00 0.00 1 1014.6
20260905123503 73 18 2.0 4.0 0.00 0.00 0.00 1 1014.6
20260905123003 72 15 3.0 4.0 0.00 0.00 0.00 1 1014.5
20260905122503 72 15 2.0 4.0 0.00 0.00 0.00 1 1014.5
20260905122003 72 19 2.0 4.0 0.00 0.00 0.00 1 1014.5
20260905121503 71 21 1.0 4.0 0.00 0.00 0.00 1 1014.4
20260905121003 71 17 2.0 4.0 0.00 0.00 0.00 1 1014.4
20260905120503 71 14 2.0 4.0 0.00 0.00 0.00 1 1014.4
20260905120003 70 12 2.0 4.0 0.00 0.00 0.00 1 1014.3
20260905115503 70 6 3.0 7.0 0.00 0.00 0.00 1 1014.3
20260905115003 70 354 3.0 7.0 0.00 0.00 0.00 1 1014.3
20260905114503 70 347 4.0 6.0 0.00 0.00 0.00 1 1014.1
20260905114003 70 343 3.0 6.0 0.00 0.00 0.00 1 1014.1
20260905113503 70 343 3.0 6.0 0.00 0.00 0.00 1 1014.1
20260905113003 70 347 3.0 5.0 0.00 0.00 0.00 1 1014.0
20260905112503 70 345 3.0 5.0 0.00 0.00 0.00 1 1014.0
20260905112003 70 346 4.0 8.0 0.00 0.00 0.00 1 1014.0
20260905111503 70 347 5.0 8.0 0.00 0.00 0.00 1 1013.9
20260905111003 70 345 5.0 8.0 0.00 0.00 0.00 1 1013.9
20260905110503 70 339 4.0 6.0 0.00 0.00 0.00 1 1013.9
20260905110003 70 335 4.0 6.0 0.00 0.00 0.00 1 1013.8
20260905105503 70 330 4.0 6.0 0.00 0.00 0.00 1 1013.8
20260905105003 69 324 4.0 6.0 0.00 0.00 0.00 1 1013.8
20260905104503 69 325 3.0 5.0 0.00 0.00 0.00 1 1013.8
20260905104003 69 328 4.0 6.0 0.00 0.00 0.00 1 1013.8
20260905103503 69 328 4.0 6.0 0.00 0.00 0.00 1 1013.8
20260905103003 69 332 5.0 8.0 0.00 0.00 0.00 1 1013.8
20260905102503 69 335 4.0 8.0 0.00 0.00 0.00 1 1013.8
20260905102003 69 336 4.0 6.0 0.00 0.00 0.00 1 1013.8
20260905101503 69 344 4.0 7.0 0.00 0.00 0.00 1 1013.7
20260905101003 68 349 4.0 8.0 0.00 0.00 0.00 1 1013.7
20260905100503 68 347 5.0 8.0 0.00 0.00 0.00 1 1013.7
20260905100003 68 344 4.0 6.0 0.00 0.00 0.00 1 1013.6
20260905095503 68 347 4.0 5.0 0.00 0.00 0.00 1 1013.6
20260905095003 68 346 4.0 5.0 0.00 0.00 0.00 1 1013.6
20260905094503 68 341 4.0 6.0 0.00 0.00 0.00 1 1013.5
20260905094003 68 342 3.0 6.0 0.00 0.00 0.00 1 1013.5
20260905093503 68 334 4.0 6.0 0.00 0.00 0.00 1 1013.5
20260905093003 68 327 3.0 6.0 0.00 0.00 0.00 1 1013.4
20260905092503 68 321 3.0 5.0 0.00 0.00 0.00 1 1013.4
20260905092003 68 321 3.0 5.0 0.00 0.00 0.00 1 1013.4
20260905091503 67 323 4.0 5.0 0.00 0.00 0.00 1 1013.5
20260905091003 67 331 4.0 5.0 0.00 0.00 0.00 1 1013.5
20260905090503 67 340 4.0 7.0 0.00 0.00 0.00 1 1013.5
20260905090003 67 352 4.0 7.0 0.00 0.00 0.00 1 1013.6
20260905085503 66 5 3.0 5.0 0.00 0.00 0.00 1 1013.6
20260905085003 66 6 3.0 5.0 0.00 0.00 0.00 1 1013.6
20260905084503 66 6 2.0 5.0 0.00 0.00 0.00 1 1013.8
20260905084003 66 6 3.0 4.0 0.00 0.00 0.00 1 1013.8
20260905083503 66 7 3.0 5.0 0.00 0.00 0.00 1 1013.8
20260905083003 66 10 2.0 5.0 0.00 0.00 0.00 1 1013.8
20260905082503 66 12 2.0 4.0 0.00 0.00 0.00 1 1013.8
20260905082003 66 12 2.0 4.0 0.00 0.00 0.00 1 1013.8
20260905081503 67 11 2.0 4.0 0.00 0.00 0.00 1 1014.0
20260905081003 67 11 2.0 4.0 0.00 0.00 0.00 1 1014.0
20260905080503 67 11 2.0 3.0 0.00 0.00 0.00 1 1014.0
20260905080003 67 11 2.0 3.0 0.00 0.00 0.00 1 1014.3